Year,Month,Day,Hour,Minute,Value (Times are PST for temperature in C)
2015,07,05,00,00,22.90
2015,07,05,00,01,22.80
2015,07,05,00,02,22.80
2015,07,05,00,03,22.80
2015,07,05,00,04,22.70
2015,07,05,00,05,22.70
2015,07,05,00,06,22.70
2015,07,05,00,07,22.60
2015,07,05,00,08,22.50
2015,07,05,00,09,22.50
2015,07,05,00,10,22.40
2015,07,05,00,11,22.30
2015,07,05,00,12,22.20
2015,07,05,00,13,22.10
2015,07,05,00,14,22.00
2015,07,05,00,15,21.90
2015,07,05,00,16,21.90
2015,07,05,00,17,21.80
2015,07,05,00,18,21.80
2015,07,05,00,19,21.70
2015,07,05,00,20,21.60
2015,07,05,00,21,21.60
2015,07,05,00,22,21.50
2015,07,05,00,23,21.50
2015,07,05,00,24,21.40
2015,07,05,00,25,21.30
2015,07,05,00,26,21.20
2015,07,05,00,27,21.10
2015,07,05,00,28,21.00
2015,07,05,00,29,20.90
2015,07,05,00,30,20.80
2015,07,05,00,31,20.70
2015,07,05,00,32,20.60
2015,07,05,00,33,20.60
2015,07,05,00,34,20.50
2015,07,05,00,35,20.40
2015,07,05,00,36,20.30
2015,07,05,00,37,20.30
2015,07,05,00,38,20.20
2015,07,05,00,39,20.20
2015,07,05,00,40,20.10
2015,07,05,00,41,20.00
2015,07,05,00,42,19.90
2015,07,05,00,43,19.90
2015,07,05,00,44,19.80
2015,07,05,00,45,19.80
2015,07,05,00,46,19.80
2015,07,05,00,47,19.80
2015,07,05,00,48,19.70
2015,07,05,00,49,19.70
2015,07,05,00,50,19.60
2015,07,05,00,51,19.60
2015,07,05,00,52,19.50
2015,07,05,00,53,19.50
2015,07,05,00,54,19.40
2015,07,05,00,55,19.40
2015,07,05,00,56,19.30
2015,07,05,00,57,19.20
2015,07,05,00,58,19.20
2015,07,05,00,59,19.10
2015,07,05,01,00,19.10
2015,07,05,01,01,19.00
2015,07,05,01,02,19.00
2015,07,05,01,03,18.90
2015,07,05,01,04,18.90
2015,07,05,01,05,18.80
2015,07,05,01,06,18.80
2015,07,05,01,07,18.70
2015,07,05,01,08,18.70
2015,07,05,01,09,18.70
2015,07,05,01,10,18.60
2015,07,05,01,11,18.60
2015,07,05,01,12,18.60
2015,07,05,01,13,18.50
2015,07,05,01,14,18.50
2015,07,05,01,15,18.50
2015,07,05,01,16,18.40
2015,07,05,01,17,18.40
2015,07,05,01,18,18.40
2015,07,05,01,19,18.30
2015,07,05,01,20,18.30
2015,07,05,01,21,18.30
2015,07,05,01,22,18.20
2015,07,05,01,23,18.20
2015,07,05,01,24,18.20
2015,07,05,01,25,18.10
2015,07,05,01,26,18.10
2015,07,05,01,27,18.10
2015,07,05,01,28,18.10
2015,07,05,01,29,18.00
2015,07,05,01,30,18.00
2015,07,05,01,31,18.00
2015,07,05,01,32,18.00
2015,07,05,01,33,17.90
2015,07,05,01,34,17.90
2015,07,05,01,35,17.90
2015,07,05,01,36,17.90
2015,07,05,01,37,17.90
2015,07,05,01,38,17.90
2015,07,05,01,39,17.90
2015,07,05,01,40,17.90
2015,07,05,01,41,17.80
2015,07,05,01,42,17.80
2015,07,05,01,43,17.80
2015,07,05,01,44,17.80
2015,07,05,01,45,17.80
2015,07,05,01,46,17.80
2015,07,05,01,47,17.80
2015,07,05,01,48,17.80
2015,07,05,01,49,17.80
2015,07,05,01,50,17.70
2015,07,05,01,51,17.70
2015,07,05,01,52,17.70
2015,07,05,01,53,17.70
2015,07,05,01,54,17.70
2015,07,05,01,55,17.70
2015,07,05,01,56,17.70
2015,07,05,01,57,17.70
2015,07,05,01,58,17.70
2015,07,05,01,59,17.80
2015,07,05,02,00,17.80
2015,07,05,02,01,17.80
2015,07,05,02,02,17.90
2015,07,05,02,03,17.90
2015,07,05,02,04,18.00
2015,07,05,02,05,18.00
2015,07,05,02,06,18.00
2015,07,05,02,07,17.90
2015,07,05,02,08,17.90
2015,07,05,02,09,17.90
2015,07,05,02,10,17.80
2015,07,05,02,11,17.80
2015,07,05,02,12,17.80
2015,07,05,02,13,17.80
2015,07,05,02,14,17.80
2015,07,05,02,15,17.70
2015,07,05,02,16,17.70
2015,07,05,02,17,17.70
2015,07,05,02,18,17.70
2015,07,05,02,19,17.70
2015,07,05,02,20,17.60
2015,07,05,02,21,17.60
2015,07,05,02,22,17.60
2015,07,05,02,23,17.60
2015,07,05,02,24,17.60
2015,07,05,02,25,17.50
2015,07,05,02,26,17.50
2015,07,05,02,27,17.40
2015,07,05,02,28,17.40
2015,07,05,02,29,17.30
2015,07,05,02,30,17.30
2015,07,05,02,31,17.30
2015,07,05,02,32,17.30
2015,07,05,02,33,17.20
2015,07,05,02,34,17.20
2015,07,05,02,35,17.20
2015,07,05,02,36,17.10
2015,07,05,02,37,17.10
2015,07,05,02,38,17.10
2015,07,05,02,39,17.10
2015,07,05,02,40,17.10
2015,07,05,02,41,17.00
2015,07,05,02,42,17.00
2015,07,05,02,43,17.00
2015,07,05,02,44,17.00
2015,07,05,02,45,16.90
2015,07,05,02,46,16.90
2015,07,05,02,47,16.90
2015,07,05,02,48,16.90
2015,07,05,02,49,16.80
2015,07,05,02,50,16.80
2015,07,05,02,51,16.80
2015,07,05,02,52,16.80
2015,07,05,02,53,16.70
2015,07,05,02,54,16.70
2015,07,05,02,55,16.70
2015,07,05,02,56,16.60
2015,07,05,02,57,16.60
2015,07,05,02,58,16.60
2015,07,05,02,59,16.60
2015,07,05,03,00,16.50
2015,07,05,03,01,16.50
2015,07,05,03,02,16.40
2015,07,05,03,03,16.40
2015,07,05,03,04,16.40
2015,07,05,03,05,16.40
2015,07,05,03,06,16.30
2015,07,05,03,07,16.30
2015,07,05,03,08,16.30
2015,07,05,03,09,16.30
2015,07,05,03,10,16.20
2015,07,05,03,11,16.20
2015,07,05,03,12,16.20
2015,07,05,03,13,16.20
2015,07,05,03,14,16.20
2015,07,05,03,15,16.10
2015,07,05,03,16,16.10
2015,07,05,03,17,16.10
2015,07,05,03,18,16.10
2015,07,05,03,19,16.10
2015,07,05,03,20,16.00
2015,07,05,03,21,16.00
2015,07,05,03,22,16.00
2015,07,05,03,23,16.00
2015,07,05,03,24,16.00
2015,07,05,03,25,16.00
2015,07,05,03,26,16.00
2015,07,05,03,27,15.90
2015,07,05,03,28,15.90
2015,07,05,03,29,15.90
2015,07,05,03,30,15.90
2015,07,05,03,31,15.90
2015,07,05,03,32,15.90
2015,07,05,03,33,15.90
2015,07,05,03,34,15.90
2015,07,05,03,35,15.90
2015,07,05,03,36,15.80
2015,07,05,03,37,15.80
2015,07,05,03,38,15.80
2015,07,05,03,39,15.80
2015,07,05,03,40,15.80
2015,07,05,03,41,15.70
2015,07,05,03,42,15.70
2015,07,05,03,43,15.70
2015,07,05,03,44,15.70
2015,07,05,03,45,15.70
2015,07,05,03,46,15.70
2015,07,05,03,47,15.60
2015,07,05,03,48,15.60
2015,07,05,03,49,15.60
2015,07,05,03,50,15.60
2015,07,05,03,51,15.50
2015,07,05,03,52,15.50
2015,07,05,03,53,15.50
2015,07,05,03,54,15.40
2015,07,05,03,55,15.40
2015,07,05,03,56,15.40
2015,07,05,03,57,15.30
2015,07,05,03,58,15.30
2015,07,05,03,59,15.30
2015,07,05,04,00,15.30
2015,07,05,04,01,15.30
2015,07,05,04,02,15.20
2015,07,05,04,03,15.20
2015,07,05,04,04,15.20
2015,07,05,04,05,15.20
2015,07,05,04,06,15.10
2015,07,05,04,07,15.10
2015,07,05,04,08,15.10
2015,07,05,04,09,15.00
2015,07,05,04,10,15.00
2015,07,05,04,11,15.00
2015,07,05,04,12,14.90
2015,07,05,04,13,14.90
2015,07,05,04,14,14.90
2015,07,05,04,15,14.90
2015,07,05,04,16,14.90
2015,07,05,04,17,14.80
2015,07,05,04,18,14.80
2015,07,05,04,19,14.80
2015,07,05,04,20,14.80
2015,07,05,04,21,14.80
2015,07,05,04,22,14.80
2015,07,05,04,23,14.70
2015,07,05,04,24,14.70
2015,07,05,04,25,14.70
2015,07,05,04,26,14.70
2015,07,05,04,27,14.60
2015,07,05,04,28,14.60
2015,07,05,04,29,14.60
2015,07,05,04,30,14.60
2015,07,05,04,31,14.60
2015,07,05,04,32,14.60
2015,07,05,04,33,14.60
2015,07,05,04,34,14.50
2015,07,05,04,35,14.50
2015,07,05,04,36,14.50
2015,07,05,04,37,14.50
2015,07,05,04,38,14.50
2015,07,05,04,39,14.40
2015,07,05,04,40,14.40
2015,07,05,04,41,14.40
2015,07,05,04,42,14.40
2015,07,05,04,43,14.40
2015,07,05,04,44,14.30
2015,07,05,04,45,14.30
2015,07,05,04,46,14.30
2015,07,05,04,47,14.30
2015,07,05,04,48,14.30
2015,07,05,04,49,14.30
2015,07,05,04,50,14.20
2015,07,05,04,51,14.20
2015,07,05,04,52,14.20
2015,07,05,04,53,14.20
2015,07,05,04,54,14.20
2015,07,05,04,55,14.20
2015,07,05,04,56,14.20
2015,07,05,04,57,14.10
2015,07,05,04,58,14.10
2015,07,05,04,59,14.10
2015,07,05,05,00,14.10
2015,07,05,05,01,14.10
2015,07,05,05,02,14.10
2015,07,05,05,03,14.00
2015,07,05,05,04,14.00
2015,07,05,05,05,14.00
2015,07,05,05,06,14.00
2015,07,05,05,07,14.00
2015,07,05,05,08,13.90
2015,07,05,05,09,13.90
2015,07,05,05,10,13.90
2015,07,05,05,11,13.90
2015,07,05,05,12,13.90
2015,07,05,05,13,13.90
2015,07,05,05,14,13.90
2015,07,05,05,15,13.90
2015,07,05,05,16,13.90
2015,07,05,05,17,13.90
2015,07,05,05,18,13.80
2015,07,05,05,19,13.80
2015,07,05,05,20,13.80
2015,07,05,05,21,13.80
2015,07,05,05,22,13.80
2015,07,05,05,23,13.80
2015,07,05,05,24,13.80
2015,07,05,05,25,13.80
2015,07,05,05,26,13.80
2015,07,05,05,27,13.80
2015,07,05,05,28,13.70
2015,07,05,05,29,13.70
2015,07,05,05,30,13.70
2015,07,05,05,31,13.70
2015,07,05,05,32,13.70
2015,07,05,05,33,13.70
2015,07,05,05,34,13.70
2015,07,05,05,35,13.60
2015,07,05,05,36,13.60
2015,07,05,05,37,13.60
2015,07,05,05,38,13.60
2015,07,05,05,39,13.60
2015,07,05,05,40,13.60
2015,07,05,05,41,13.60
2015,07,05,05,42,13.60
2015,07,05,05,43,13.60
2015,07,05,05,44,13.60
2015,07,05,05,45,13.50
2015,07,05,05,46,13.50
2015,07,05,05,47,13.50
2015,07,05,05,48,13.50
2015,07,05,05,49,13.50
2015,07,05,05,50,13.40
2015,07,05,05,51,13.40
2015,07,05,05,52,13.40
2015,07,05,05,53,13.40
2015,07,05,05,54,13.40
2015,07,05,05,55,13.40
2015,07,05,05,56,13.40
2015,07,05,05,57,13.40
2015,07,05,05,58,13.40
2015,07,05,05,59,13.40
2015,07,05,06,00,13.40
2015,07,05,06,01,13.40
2015,07,05,06,02,13.40
2015,07,05,06,03,13.40
2015,07,05,06,04,13.40
2015,07,05,06,05,13.40
2015,07,05,06,06,13.40
2015,07,05,06,07,13.40
2015,07,05,06,08,13.40
2015,07,05,06,09,13.40
2015,07,05,06,10,13.40
2015,07,05,06,11,13.40
2015,07,05,06,12,13.40
2015,07,05,06,13,13.40
2015,07,05,06,14,13.40
2015,07,05,06,15,13.40
2015,07,05,06,16,13.40
2015,07,05,06,17,13.40
2015,07,05,06,18,13.40
2015,07,05,06,19,13.40
2015,07,05,06,20,13.40
2015,07,05,06,21,13.40
2015,07,05,06,22,13.40
2015,07,05,06,23,13.40
2015,07,05,06,24,13.40
2015,07,05,06,25,13.40
2015,07,05,06,26,13.40
2015,07,05,06,27,13.40
2015,07,05,06,28,13.40
2015,07,05,06,29,13.40
2015,07,05,06,30,13.40
2015,07,05,06,31,13.40
2015,07,05,06,32,13.40
2015,07,05,06,33,13.40
2015,07,05,06,34,13.50
2015,07,05,06,35,13.40
2015,07,05,06,36,13.50
2015,07,05,06,37,13.50
2015,07,05,06,38,13.50
2015,07,05,06,39,13.50
2015,07,05,06,40,13.50
2015,07,05,06,41,13.50
2015,07,05,06,42,13.60
2015,07,05,06,43,13.60
2015,07,05,06,44,13.60
2015,07,05,06,45,13.60
2015,07,05,06,46,13.60
2015,07,05,06,47,13.60
2015,07,05,06,48,13.70
2015,07,05,06,49,13.70
2015,07,05,06,50,13.70
2015,07,05,06,51,13.70
2015,07,05,06,52,13.80
2015,07,05,06,53,13.80
2015,07,05,06,54,13.80
2015,07,05,06,55,13.80
2015,07,05,06,56,13.80
2015,07,05,06,57,13.90
2015,07,05,06,58,13.90
2015,07,05,06,59,14.00
2015,07,05,07,00,14.00
2015,07,05,07,01,14.10
2015,07,05,07,02,14.10
2015,07,05,07,03,14.20
2015,07,05,07,04,14.20
2015,07,05,07,05,14.20
2015,07,05,07,06,14.20
2015,07,05,07,07,14.20
2015,07,05,07,08,14.20
2015,07,05,07,09,14.20
2015,07,05,07,10,14.30
2015,07,05,07,11,14.30
2015,07,05,07,12,14.30
2015,07,05,07,13,14.40
2015,07,05,07,14,14.40
2015,07,05,07,15,14.50
2015,07,05,07,16,14.60
2015,07,05,07,17,14.60
2015,07,05,07,18,14.70
2015,07,05,07,19,14.70
2015,07,05,07,20,14.80
2015,07,05,07,21,14.80
2015,07,05,07,22,14.80
2015,07,05,07,23,14.90
2015,07,05,07,24,14.90
2015,07,05,07,25,14.90
2015,07,05,07,26,15.00
2015,07,05,07,27,15.10
2015,07,05,07,28,15.10
2015,07,05,07,29,15.20
2015,07,05,07,30,15.20
2015,07,05,07,31,15.30
2015,07,05,07,32,15.30
2015,07,05,07,33,15.40
2015,07,05,07,34,15.40
2015,07,05,07,35,15.50
2015,07,05,07,36,15.50
2015,07,05,07,37,15.60
2015,07,05,07,38,15.70
2015,07,05,07,39,15.70
2015,07,05,07,40,15.80
2015,07,05,07,41,15.80
2015,07,05,07,42,15.90
2015,07,05,07,43,16.00
2015,07,05,07,44,16.00
2015,07,05,07,45,16.10
2015,07,05,07,46,16.20
2015,07,05,07,47,16.20
2015,07,05,07,48,16.30
2015,07,05,07,49,16.30
2015,07,05,07,50,16.40
2015,07,05,07,51,16.40
2015,07,05,07,52,16.50
2015,07,05,07,53,16.60
2015,07,05,07,54,16.60
2015,07,05,07,55,16.70
2015,07,05,07,56,16.70
2015,07,05,07,57,16.80
2015,07,05,07,58,16.80
2015,07,05,07,59,16.90
2015,07,05,08,00,17.00
2015,07,05,08,01,17.10
2015,07,05,08,02,17.20
2015,07,05,08,03,17.20
2015,07,05,08,04,17.30
2015,07,05,08,05,17.30
2015,07,05,08,06,17.30
2015,07,05,08,07,17.30
2015,07,05,08,08,17.30
2015,07,05,08,09,17.40
2015,07,05,08,10,17.40
2015,07,05,08,11,17.50
2015,07,05,08,12,17.50
2015,07,05,08,13,17.60
2015,07,05,08,14,17.60
2015,07,05,08,15,17.70
2015,07,05,08,16,17.80
2015,07,05,08,17,17.80
2015,07,05,08,18,17.90
2015,07,05,08,19,18.00
2015,07,05,08,20,18.00
2015,07,05,08,21,18.10
2015,07,05,08,22,18.20
2015,07,05,08,23,18.20
2015,07,05,08,24,18.30
2015,07,05,08,25,18.30
2015,07,05,08,26,18.40
2015,07,05,08,27,18.40
2015,07,05,08,28,18.40
2015,07,05,08,29,18.40
2015,07,05,08,30,18.40
2015,07,05,08,31,18.40
2015,07,05,08,32,18.40
2015,07,05,08,33,18.40
2015,07,05,08,34,18.50
2015,07,05,08,35,18.50
2015,07,05,08,36,18.60
2015,07,05,08,37,18.60
2015,07,05,08,38,18.60
2015,07,05,08,39,18.70
2015,07,05,08,40,18.70
2015,07,05,08,41,18.70
2015,07,05,08,42,18.80
2015,07,05,08,43,18.80
2015,07,05,08,44,18.90
2015,07,05,08,45,18.90
2015,07,05,08,46,18.90
2015,07,05,08,47,18.90
2015,07,05,08,48,18.90
2015,07,05,08,49,18.90
2015,07,05,08,50,18.90
2015,07,05,08,51,18.90
2015,07,05,08,52,19.00
2015,07,05,08,53,19.00
2015,07,05,08,54,19.10
2015,07,05,08,55,19.10
2015,07,05,08,56,19.20
2015,07,05,08,57,19.20
2015,07,05,08,58,19.30
2015,07,05,08,59,19.30
2015,07,05,09,00,19.30
2015,07,05,09,01,19.30
2015,07,05,09,02,19.40
2015,07,05,09,03,19.40
2015,07,05,09,04,19.50
2015,07,05,09,05,19.60
2015,07,05,09,06,19.60
2015,07,05,09,07,19.70
2015,07,05,09,08,19.70
2015,07,05,09,09,19.80
2015,07,05,09,10,19.80
2015,07,05,09,11,19.90
2015,07,05,09,12,19.90
2015,07,05,09,13,20.00
2015,07,05,09,14,20.10
2015,07,05,09,15,20.20
2015,07,05,09,16,20.30
2015,07,05,09,17,20.40
2015,07,05,09,18,20.40
2015,07,05,09,19,20.50
2015,07,05,09,20,20.50
2015,07,05,09,21,20.60
2015,07,05,09,22,20.70
2015,07,05,09,23,20.80
2015,07,05,09,24,20.80
2015,07,05,09,25,20.90
2015,07,05,09,26,20.90
2015,07,05,09,27,21.00
2015,07,05,09,28,21.10
2015,07,05,09,29,21.20
2015,07,05,09,30,21.20
2015,07,05,09,31,21.30
2015,07,05,09,32,21.30
2015,07,05,09,33,21.40
2015,07,05,09,34,21.40
2015,07,05,09,35,21.50
2015,07,05,09,36,21.60
2015,07,05,09,37,21.60
2015,07,05,09,38,21.70
2015,07,05,09,39,21.80
2015,07,05,09,40,21.80
2015,07,05,09,41,21.80
2015,07,05,09,42,21.80
2015,07,05,09,43,21.80
2015,07,05,09,44,21.80
2015,07,05,09,45,21.70
2015,07,05,09,46,21.70
2015,07,05,09,47,21.70
2015,07,05,09,48,21.70
2015,07,05,09,49,21.70
2015,07,05,09,50,21.80
2015,07,05,09,51,21.80
2015,07,05,09,52,21.80
2015,07,05,09,53,21.90
2015,07,05,09,54,21.90
2015,07,05,09,55,21.90
2015,07,05,09,56,22.00
2015,07,05,09,57,22.00
2015,07,05,09,58,22.10
2015,07,05,09,59,22.10
2015,07,05,10,00,22.10
2015,07,05,10,01,22.20
2015,07,05,10,02,22.20
2015,07,05,10,03,22.30
2015,07,05,10,04,22.40
2015,07,05,10,05,22.40
2015,07,05,10,06,22.50
2015,07,05,10,07,22.60
2015,07,05,10,08,22.80
2015,07,05,10,09,22.90
2015,07,05,10,10,23.10
2015,07,05,10,11,23.20
2015,07,05,10,12,23.30
2015,07,05,10,13,23.30
2015,07,05,10,14,23.40
2015,07,05,10,15,23.40
2015,07,05,10,16,23.50
2015,07,05,10,17,23.60
2015,07,05,10,18,23.70
2015,07,05,10,19,23.80
2015,07,05,10,20,23.80
2015,07,05,10,21,23.80
2015,07,05,10,22,23.90
2015,07,05,10,23,23.90
2015,07,05,10,24,23.90
2015,07,05,10,25,24.00
2015,07,05,10,26,24.00
2015,07,05,10,27,24.10
2015,07,05,10,28,24.10
2015,07,05,10,29,24.10
2015,07,05,10,30,24.10
2015,07,05,10,31,24.20
2015,07,05,10,32,24.20
2015,07,05,10,33,24.30
2015,07,05,10,34,24.40
2015,07,05,10,35,24.50
2015,07,05,10,36,24.60
2015,07,05,10,37,24.60
2015,07,05,10,38,24.70
2015,07,05,10,39,24.80
2015,07,05,10,40,24.80
2015,07,05,10,41,24.90
2015,07,05,10,42,25.00
2015,07,05,10,43,25.10
2015,07,05,10,44,25.10
2015,07,05,10,45,25.20
2015,07,05,10,46,25.20
2015,07,05,10,47,25.30
2015,07,05,10,48,25.40
2015,07,05,10,49,25.50
2015,07,05,10,50,25.60
2015,07,05,10,51,25.60
2015,07,05,10,52,25.70
2015,07,05,10,53,25.70
2015,07,05,10,54,25.80
2015,07,05,10,55,25.90
2015,07,05,10,56,26.00
2015,07,05,10,57,26.10
2015,07,05,10,58,26.30
2015,07,05,10,59,26.40
2015,07,05,11,00,26.50
2015,07,05,11,01,26.60
2015,07,05,11,02,26.70
2015,07,05,11,03,26.80
2015,07,05,11,04,26.80
2015,07,05,11,05,26.80
2015,07,05,11,06,26.80
2015,07,05,11,07,26.80
2015,07,05,11,08,26.80
2015,07,05,11,09,26.90
2015,07,05,11,10,26.90
2015,07,05,11,11,27.00
2015,07,05,11,12,27.00
2015,07,05,11,13,27.10
2015,07,05,11,14,27.10
2015,07,05,11,15,27.10
2015,07,05,11,16,27.10
2015,07,05,11,17,27.20
2015,07,05,11,18,27.20
2015,07,05,11,19,27.20
2015,07,05,11,20,27.20
2015,07,05,11,21,27.30
2015,07,05,11,22,27.30
2015,07,05,11,23,27.30
2015,07,05,11,24,27.30
2015,07,05,11,25,27.40
2015,07,05,11,26,27.40
2015,07,05,11,27,27.40
2015,07,05,11,28,27.50
2015,07,05,11,29,27.50
2015,07,05,11,30,27.60
2015,07,05,11,31,27.70
2015,07,05,11,32,27.80
2015,07,05,11,33,27.80
2015,07,05,11,34,27.90
2015,07,05,11,35,27.90
2015,07,05,11,36,28.00
2015,07,05,11,37,28.10
2015,07,05,11,38,28.10
2015,07,05,11,39,28.10
2015,07,05,11,40,28.20
2015,07,05,11,41,28.20
2015,07,05,11,42,28.20
2015,07,05,11,43,28.30
2015,07,05,11,44,28.30
2015,07,05,11,45,28.40
2015,07,05,11,46,28.50
2015,07,05,11,47,28.60
2015,07,05,11,48,28.70
2015,07,05,11,49,28.80
2015,07,05,11,50,28.90
2015,07,05,11,51,29.00
2015,07,05,11,52,29.10
2015,07,05,11,53,29.20
2015,07,05,11,54,29.20
2015,07,05,11,55,29.10
2015,07,05,11,56,29.00
2015,07,05,11,57,28.90
2015,07,05,11,58,28.90
2015,07,05,11,59,28.90
2015,07,05,12,00,29.00
2015,07,05,12,01,29.10
2015,07,05,12,02,29.10
2015,07,05,12,03,29.10
2015,07,05,12,04,29.20
2015,07,05,12,05,29.20
2015,07,05,12,06,29.20
2015,07,05,12,07,29.30
2015,07,05,12,08,29.40
2015,07,05,12,09,29.50
2015,07,05,12,10,29.50
2015,07,05,12,11,29.60
2015,07,05,12,12,29.70
2015,07,05,12,13,29.80
2015,07,05,12,14,29.90
2015,07,05,12,15,30.00
2015,07,05,12,16,30.00
2015,07,05,12,17,30.00
2015,07,05,12,18,30.00
2015,07,05,12,19,30.10
2015,07,05,12,20,30.10
2015,07,05,12,21,30.10
2015,07,05,12,22,30.20
2015,07,05,12,23,30.20
2015,07,05,12,24,30.30
2015,07,05,12,25,30.30
2015,07,05,12,26,30.30
2015,07,05,12,27,30.30
2015,07,05,12,28,30.30
2015,07,05,12,29,30.40
2015,07,05,12,30,30.40
2015,07,05,12,31,30.50
2015,07,05,12,32,30.60
2015,07,05,12,33,30.70
2015,07,05,12,34,30.80
2015,07,05,12,35,30.90
2015,07,05,12,36,31.00
2015,07,05,12,37,31.10
2015,07,05,12,38,31.30
2015,07,05,12,39,31.30
2015,07,05,12,40,31.40
2015,07,05,12,41,31.50
2015,07,05,12,42,31.60
2015,07,05,12,43,31.60
2015,07,05,12,44,31.70
2015,07,05,12,45,31.90
2015,07,05,12,46,32.00
2015,07,05,12,47,32.10
2015,07,05,12,48,32.20
2015,07,05,12,49,32.40
2015,07,05,12,50,32.50
2015,07,05,12,51,32.60
2015,07,05,12,52,32.80
2015,07,05,12,53,32.90
2015,07,05,12,54,33.00
2015,07,05,12,55,33.10
2015,07,05,12,56,33.10
2015,07,05,12,57,33.20
2015,07,05,12,58,33.20
2015,07,05,12,59,33.30
2015,07,05,13,00,33.40
2015,07,05,13,01,33.40
2015,07,05,13,02,33.50
2015,07,05,13,03,33.50
2015,07,05,13,04,33.50
2015,07,05,13,05,33.40
2015,07,05,13,06,33.30
2015,07,05,13,07,33.20
2015,07,05,13,08,33.10
2015,07,05,13,09,33.10
2015,07,05,13,10,33.10
2015,07,05,13,11,33.10
2015,07,05,13,12,33.10
2015,07,05,13,13,33.10
2015,07,05,13,14,33.10
2015,07,05,13,15,33.20
2015,07,05,13,16,33.20
2015,07,05,13,17,33.20
2015,07,05,13,18,33.30
2015,07,05,13,19,33.40
2015,07,05,13,20,33.40
2015,07,05,13,21,33.40
2015,07,05,13,22,33.50
2015,07,05,13,23,33.60
2015,07,05,13,24,33.60
2015,07,05,13,25,33.60
2015,07,05,13,26,33.50
2015,07,05,13,27,33.50
2015,07,05,13,28,33.40
2015,07,05,13,29,33.40
2015,07,05,13,30,33.30
2015,07,05,13,31,33.30
2015,07,05,13,32,33.20
2015,07,05,13,33,33.20
2015,07,05,13,34,33.30
2015,07,05,13,35,33.30
2015,07,05,13,36,33.30
2015,07,05,13,37,33.30
2015,07,05,13,38,33.30
2015,07,05,13,39,33.40
2015,07,05,13,40,33.50
2015,07,05,13,41,33.50
2015,07,05,13,42,33.60
2015,07,05,13,43,33.70
2015,07,05,13,44,33.70
2015,07,05,13,45,33.70
2015,07,05,13,46,33.60
2015,07,05,13,47,33.60
2015,07,05,13,48,33.50
2015,07,05,13,49,33.50
2015,07,05,13,50,33.40
2015,07,05,13,51,33.50
2015,07,05,13,52,33.50
2015,07,05,13,53,33.60
2015,07,05,13,54,33.60
2015,07,05,13,55,33.70
2015,07,05,13,56,33.80
2015,07,05,13,57,33.80
2015,07,05,13,58,33.80
2015,07,05,13,59,33.70
2015,07,05,14,00,33.70
2015,07,05,14,01,33.80
2015,07,05,14,02,33.80
2015,07,05,14,03,33.90
2015,07,05,14,04,33.90
2015,07,05,14,05,34.00
2015,07,05,14,06,34.00
2015,07,05,14,07,34.10
2015,07,05,14,08,34.10
2015,07,05,14,09,34.00
2015,07,05,14,10,34.00
2015,07,05,14,11,33.90
2015,07,05,14,12,33.90
2015,07,05,14,13,33.90
2015,07,05,14,14,33.90
2015,07,05,14,15,33.80
2015,07,05,14,16,33.80
2015,07,05,14,17,33.80
2015,07,05,14,18,33.80
2015,07,05,14,19,33.80
2015,07,05,14,20,33.80
2015,07,05,14,21,33.90
2015,07,05,14,22,33.90
2015,07,05,14,23,33.90
2015,07,05,14,24,34.00
2015,07,05,14,25,33.90
2015,07,05,14,26,33.90
2015,07,05,14,27,34.00
2015,07,05,14,28,34.00
2015,07,05,14,29,34.00
2015,07,05,14,30,34.10
2015,07,05,14,31,34.10
2015,07,05,14,32,34.10
2015,07,05,14,33,34.10
2015,07,05,14,34,34.00
2015,07,05,14,35,34.00
2015,07,05,14,36,33.90
2015,07,05,14,37,33.90
2015,07,05,14,38,33.80
2015,07,05,14,39,33.80
2015,07,05,14,40,33.80
2015,07,05,14,41,33.80
2015,07,05,14,42,33.80
2015,07,05,14,43,33.80
2015,07,05,14,44,33.90
2015,07,05,14,45,34.00
2015,07,05,14,46,34.10
2015,07,05,14,47,34.20
2015,07,05,14,48,34.20
2015,07,05,14,49,34.10
2015,07,05,14,50,34.10
2015,07,05,14,51,34.10
2015,07,05,14,52,34.10
2015,07,05,14,53,34.10
2015,07,05,14,54,34.10
2015,07,05,14,55,34.10
2015,07,05,14,56,34.10
2015,07,05,14,57,34.10
2015,07,05,14,58,34.10
2015,07,05,14,59,34.10
2015,07,05,15,00,34.10
2015,07,05,15,01,34.10
2015,07,05,15,02,34.20
2015,07,05,15,03,34.20
2015,07,05,15,04,34.20
2015,07,05,15,05,34.20
2015,07,05,15,06,34.20
2015,07,05,15,07,34.20
2015,07,05,15,08,34.10
2015,07,05,15,09,34.10
2015,07,05,15,10,34.00
2015,07,05,15,11,34.00
2015,07,05,15,12,33.90
2015,07,05,15,13,33.90
2015,07,05,15,14,33.90
2015,07,05,15,15,33.80
2015,07,05,15,16,33.80
2015,07,05,15,17,33.70
2015,07,05,15,18,33.70
2015,07,05,15,19,33.70
2015,07,05,15,20,33.70
2015,07,05,15,21,33.70
2015,07,05,15,22,33.80
2015,07,05,15,23,33.90
2015,07,05,15,24,33.90
2015,07,05,15,25,34.00
2015,07,05,15,26,34.00
2015,07,05,15,27,33.90
2015,07,05,15,28,33.90
2015,07,05,15,29,33.90
2015,07,05,15,30,33.90
2015,07,05,15,31,33.90
2015,07,05,15,32,33.90
2015,07,05,15,33,33.90
2015,07,05,15,34,33.90
2015,07,05,15,35,34.00
2015,07,05,15,36,34.00
2015,07,05,15,37,34.10
2015,07,05,15,38,34.10
2015,07,05,15,39,34.10
2015,07,05,15,40,34.10
2015,07,05,15,41,34.20
2015,07,05,15,42,34.20
2015,07,05,15,43,34.20
2015,07,05,15,44,34.30
2015,07,05,15,45,34.20
2015,07,05,15,46,34.20
2015,07,05,15,47,34.10
2015,07,05,15,48,34.10
2015,07,05,15,49,34.10
2015,07,05,15,50,34.10
2015,07,05,15,51,34.00
2015,07,05,15,52,34.00
2015,07,05,15,53,33.90
2015,07,05,15,54,33.90
2015,07,05,15,55,33.90
2015,07,05,15,56,33.80
2015,07,05,15,57,33.80
2015,07,05,15,58,33.80
2015,07,05,15,59,33.80
2015,07,05,16,00,33.80
2015,07,05,16,01,33.80
2015,07,05,16,02,33.80
2015,07,05,16,03,33.80
2015,07,05,16,04,33.80
2015,07,05,16,05,33.80
2015,07,05,16,06,33.90
2015,07,05,16,07,33.90
2015,07,05,16,08,33.90
2015,07,05,16,09,33.90
2015,07,05,16,10,33.90
2015,07,05,16,11,34.00
2015,07,05,16,12,34.00
2015,07,05,16,13,34.10
2015,07,05,16,14,34.00
2015,07,05,16,15,34.00
2015,07,05,16,16,33.90
2015,07,05,16,17,33.90
2015,07,05,16,18,33.90
2015,07,05,16,19,33.90
2015,07,05,16,20,33.90
2015,07,05,16,21,33.90
2015,07,05,16,22,33.80
2015,07,05,16,23,33.80
2015,07,05,16,24,33.70
2015,07,05,16,25,33.70
2015,07,05,16,26,33.70
2015,07,05,16,27,33.70
2015,07,05,16,28,33.70
2015,07,05,16,29,33.70
2015,07,05,16,30,33.70
2015,07,05,16,31,33.70
2015,07,05,16,32,33.70
2015,07,05,16,33,33.70
2015,07,05,16,34,33.80
2015,07,05,16,35,33.80
2015,07,05,16,36,33.80
2015,07,05,16,37,33.80
2015,07,05,16,38,33.80
2015,07,05,16,39,33.80
2015,07,05,16,40,33.80
2015,07,05,16,41,33.80
2015,07,05,16,42,33.80
2015,07,05,16,43,33.70
2015,07,05,16,44,33.70
2015,07,05,16,45,33.80
2015,07,05,16,46,33.80
2015,07,05,16,47,33.80
2015,07,05,16,48,33.80
2015,07,05,16,49,33.80
2015,07,05,16,50,33.90
2015,07,05,16,51,33.90
2015,07,05,16,52,33.90
2015,07,05,16,53,33.80
2015,07,05,16,54,33.80
2015,07,05,16,55,33.80
2015,07,05,16,56,33.80
2015,07,05,16,57,33.80
2015,07,05,16,58,33.80
2015,07,05,16,59,33.80
2015,07,05,17,00,33.80
2015,07,05,17,01,33.80
2015,07,05,17,02,33.80
2015,07,05,17,03,33.80
2015,07,05,17,04,33.70
2015,07,05,17,05,33.70
2015,07,05,17,06,33.60
2015,07,05,17,07,33.60
2015,07,05,17,08,33.60
2015,07,05,17,09,33.60
2015,07,05,17,10,33.60
2015,07,05,17,11,33.60
2015,07,05,17,12,33.60
2015,07,05,17,13,33.60
2015,07,05,17,14,33.50
2015,07,05,17,15,33.50
2015,07,05,17,16,33.40
2015,07,05,17,17,33.40
2015,07,05,17,18,33.30
2015,07,05,17,19,33.30